Wind_Speed
11 9 7 6 7 8 9 10 10 11 11 10 9 9 9 10 10 10 10 9 8 8 7 7 7 6 6 6 6 7 7 8 9 9 9 9 10 10 9 8 8 7
11 11 9 7 7 8 9 10 11 11 12 11 11 10 10 11 11 11 11 10 10 9 8 8 7 6 6 6 6 8 7 8 9 9 9 9 10 11 10 9 9 8
12 12 12 10 9 8 9 10 11 12 12 13 12 11 11 11 12 12 12 12 11 10 10 9 8 7 7 6 7 7 8 8 8 9 9 9 11 12 12 11 10 9
13 14 14 13 11 9 9 11 12 12 13 14 13 13 12 12 13 13 12 12 12 11 11 10 9 8 7 7 7 8 8 8 8 9 9 10 11 12 12 12 12 11
15 16 16 15 13 11 10 11 12 13 14 14 15 14 14 14 14 13 13 13 12 12 11 11 10 10 9 8 8 9 9 9 9 9 9 10 11 12 13 13 13 13
17 18 18 17 16 13 12 11 12 14 14 15 16 16 15 15 14 14 14 14 13 12 12 11 11 11 11 10 10 10 10 10 10 10 10 11 11 12 13 14 14 14
19 19 20 19 18 16 13 12 12 13 14 15 16 17 16 16 15 15 15 15 14 13 13 12 12 12 12 11 12 11 11 11 11 11 11 11 11 12 13 13 14 15
16 16 16 17 17 15 12 11 11 12 13 14 15 16 16 16 15 15 15 15 15 14 14 13 12 11 12 12 12 12 12 12 12 12 11 11 11 12 12 13 13 14
14 12 12 13 15 16 14 12 12 11 11 12 13 14 15 16 15 15 15 15 15 15 14 13 12 12 12 12 12 13 13 12 12 12 12 12 11 11 12 13 13 13
16 14 14 14 15 18 18 15 13 12 12 12 12 12 14 15 15 15 15 15 15 15 15 14 13 12 12 12 13 13 13 13 13 12 13 13 12 12 12 13 13 13
19 18 17 15 15 17 18 17 15 13 13 13 13 13 13 13 14 15 16 15 15 14 14 14 13 12 12 13 13 14 14 14 14 13 13 13 13 13 13 13 13 13
21 21 20 17 16 18 20 19 18 17 16 15 14 14 13 13 13 15 16 16 15 15 14 14 14 13 13 13 14 14 15 15 15 15 14 14 14 14 14 14 14 14
21 21 21 20 20 20 21 22 21 20 19 17 16 15 14 14 13 14 15 16 16 16 15 15 15 15 14 14 15 15 16 16 17 16 16 15 15 15 15 15 15 15
20 21 22 21 21 21 22 23 23 22 21 20 19 17 16 16 15 14 14 16 16 17 16 16 16 16 16 16 16 16 17 17 17 18 17 17 17 16 16 16 16 17
21 21 22 22 21 22 23 24 24 24 24 22 21 19 18 18 17 16 15 16 17 17 17 16 16 17 18 18 17 17 17 17 17 18 18 18 19 18 18 18 18 18
21 21 22 23 24 24 25 26 26 25 25 24 22 21 21 20 19 18 17 17 18 19 18 18 18 18 19 19 19 18 18 18 18 18 18 19 19 19 19 19 19 19
19 21 22 23 24 25 26 26 25 25 24 25 24 23 22 21 20 19 19 19 19 19 20 20 20 21 21 21 21 20 20 19 19 19 19 19 19 20 20 21 21 21
17 19 21 22 23 24 26 26 26 25 25 26 26 25 24 22 21 21 21 20 20 20 20 20 21 22 22 22 22 22 21 21 20 20 19 19 20 20 21 22 22 22
15 17 19 21 23 24 26 27 27 27 27 27 28 28 27 24 22 22 22 21 22 22 21 21 22 22 22 22 22 22 22 21 21 20 20 20 20 20 21 22 23 23
15 16 16 17 20 22 24 26 28 28 28 28 29 29 29 27 26 25 24 24 24 25 24 23 23 23 23 22 22 22 22 21 21 21 21 21 21 21 21 22 23 23
17 17 17 17 17 17 19 22 25 27 28 28 29 29 29 29 29 28 27 27 27 27 27 26 25 24 23 23 23 24 24 24 24 23 23 22 22 22 22 22 22 23
21 20 20 20 19 17 16 17 20 23 25 27 29 30 29 28 29 30 30 29 29 29 29 28 27 25 24 24 25 26 27 27 26 26 26 25 25 24 24 24 23 23
25 24 23 23 22 21 20 19 18 20 22 23 24 26 27 28 29 30 31 31 30 29 30 30 29 27 27 27 28 29 30 29 29 28 27 26 26 26 26 25 25 24
27 27 26 25 24 24 24 23 22 22 22 22 22 22 24 26 28 31 32 31 30 29 30 30 31 31 31 31 31 31 31 31 30 29 27 26 26 26 27 26 26 26
30 29 29 28 27 26 26 26 26 25 24 23 23 22 23 24 26 29 31 30 29 29 29 30 32 33 33 33 32 32 32 32 31 29 28 28 27 27 27 27 27 26
33 33 32 31 30 29 29 28 28 28 26 25 24 25 26 27 27 28 28 27 27 27 29 30 32 32 33 32 33 33 32 32 32 31 30 30 29 28 27 27 27 28
Wind_Direction
219 218 215 207 201 202 200 194 188 186 187 188 187 187 184 179 175 170 167 169 168 160 155 154 150 144 140 140 143 144 148 157 159 158 163 167 169 169 167 163 160 158
220 220 221 217 209 205 204 201 196 192 191 192 192 190 188 185 183 179 174 174 174 170 168 169 165 156 151 151 149 145 151 160 160 160 165 171 174 172 172 170 167 164
218 217 218 220 217 210 206 206 204 199 196 197 196 194 192 190 190 188 182 179 178 176 176 176 176 173 166 162 158 155 160 163 161 163 167 174 178 176 176 176 176 173
214 214 214 215 218 216 211 210 209 205 202 201 201 199 197 195 194 195 191 185 182 181 182 182 182 184 182 177 173 170 169 165 164 167 170 175 179 179 178 181 184 182
210 211 211 212 215 217 216 213 210 209 206 204 204 204 203 200 197 197 197 194 190 188 189 188 186 188 191 188 186 184 178 172 170 173 176 177 180 182 182 185 190 188
207 208 207 209 213 215 218 217 213 211 209 207 208 208 208 207 203 200 199 199 199 198 197 196 193 192 195 196 196 193 185 179 178 180 182 182 183 185 186 187 191 193
207 209 207 206 209 212 214 215 216 215 212 211 212 212 212 213 210 206 202 202 204 205 204 203 200 199 200 202 204 202 194 186 184 186 187 189 192 191 189 189 190 195
214 214 215 213 214 215 216 219 222 221 219 218 219 219 218 218 218 215 210 206 207 208 209 210 209 207 207 208 210 210 207 199 191 191 193 196 199 197 194 195 195 196
222 216 217 219 222 220 217 220 225 226 226 226 228 230 229 227 227 226 222 216 213 213 213 214 215 215 214 214 215 215 216 212 201 198 200 201 202 202 201 203 203 201
226 219 211 211 219 220 216 215 219 223 224 224 226 233 237 237 236 235 233 229 224 221 219 219 219 221 221 219 218 218 219 219 213 206 206 206 205 206 209 211 210 207
221 222 216 210 215 221 219 215 215 222 226 225 221 223 231 239 243 242 241 240 238 234 229 227 225 225 225 222 220 219 218 219 218 214 212 212 210 210 214 217 218 216
218 222 221 217 216 219 219 214 211 216 223 227 226 223 223 229 239 246 247 246 246 245 241 237 233 230 228 225 222 220 218 218 218 217 214 216 217 216 217 219 221 222
221 219 218 220 220 222 221 215 211 213 217 223 227 228 227 225 228 238 246 248 248 248 246 242 239 236 233 229 225 222 220 217 217 217 215 216 219 220 221 222 224 225
223 217 215 218 221 226 227 222 217 215 216 220 224 227 229 229 226 227 236 243 245 245 246 245 243 240 236 233 230 227 225 222 219 217 216 215 217 220 221 224 226 228
224 219 218 220 221 226 229 226 221 219 219 220 223 225 228 230 229 226 229 237 239 239 240 242 242 241 239 237 234 232 230 228 226 223 220 218 217 218 219 221 224 227
223 221 221 221 220 222 226 226 225 224 223 223 223 225 226 228 229 227 225 231 237 237 234 234 236 239 239 238 236 234 232 231 230 229 227 225 223 222 222 222 223 225
219 219 219 220 219 220 225 229 230 229 228 226 225 226 227 228 230 230 226 227 233 237 237 234 233 235 237 238 238 236 234 232 232 231 231 231 229 228 228 227 227 227
218 218 218 219 221 224 228 232 233 232 230 228 226 226 227 229 230 231 231 230 231 234 238 238 236 235 236 239 241 241 240 238 235 234 233 233 232 232 232 232 231 231
224 221 220 220 224 228 232 233 233 232 231 229 227 226 226 229 232 231 231 233 235 235 235 237 238 237 236 237 240 243 245 246 245 242 239 238 237 237 237 237 236 235
234 231 229 226 226 229 233 234 233 230 228 226 226 226 226 228 233 233 230 230 235 238 237 235 234 236 237 238 238 239 240 242 244 245 244 242 241 240 240 241 242 241
249 248 247 242 237 235 234 232 231 229 226 224 224 225 226 228 233 235 233 230 231 236 240 240 238 236 236 237 239 239 238 237 236 236 237 238 239 239 238 240 242 243
255 257 257 253 250 248 245 239 234 231 228 228 229 228 228 229 233 235 236 235 234 235 239 243 244 242 239 237 237 238 239 237 235 234 233 233 234 234 235 236 238 240
255 256 258 259 257 255 252 249 245 239 234 235 237 237 235 235 237 238 238 238 238 238 240 243 245 245 243 241 240 239 239 239 238 238 237 237 237 237 237 237 237 238
256 257 257 258 259 259 258 254 251 247 243 243 246 245 242 240 240 240 240 239 239 242 244 245 244 244 244 244 244 244 245 245 244 243 243 242 242 242 243 242 242 242
255 256 256 256 256 258 259 259 257 255 253 254 254 253 250 247 245 244 243 240 240 243 247 247 246 246 246 247 247 248 250 251 252 250 249 247 245 244 244 245 245 245
254 254 255 255 256 255 257 259 260 259 259 258 258 258 257 255 254 252 248 243 242 245 248 247 247 248 250 250 250 251 252 254 255 254 253 253 251 249 247 247 247 248
Height
5953 5954 5955 5956 5956 5957 5957 5957 5958 5958 5959 5960 5960 5961 5962 5962 5962 5963 5963 5964 5964 5964 5965 5966 5966 5967 5967 5968 5969 5969 5970 5971 5971 5971 5972 5972 5973 5974 5975 5975 5975 5976
5951 5952 5954 5955 5956 5956 5956 5957 5957 5957 5958 5959 5959 5960 5961 5962 5962 5962 5963 5963 5963 5964 5965 5965 5966 5966 5967 5967 5968 5968 5969 5970 5971 5971 5972 5972 5973 5974 5974 5975 5975 5976
5949 5950 5952 5953 5954 5955 5955 5956 5956 5957 5957 5958 5959 5959 5960 5961 5962 5962 5962 5962 5963 5963 5964 5965 5965 5966 5966 5966 5967 5967 5969 5970 5970 5971 5971 5972 5973 5974 5974 5975 5975 5976
5947 5948 5949 5950 5952 5953 5954 5955 5955 5956 5956 5957 5957 5958 5959 5960 5961 5961 5962 5962 5962 5963 5963 5964 5964 5965 5965 5966 5966 5966 5967 5968 5969 5970 5971 5971 5972 5973 5973 5974 5975 5975
5944 5945 5947 5948 5950 5951 5953 5953 5954 5954 5955 5956 5956 5957 5958 5959 5960 5960 5961 5961 5961 5962 5962 5963 5963 5964 5965 5965 5965 5966 5966 5967 5968 5969 5970 5971 5971 5972 5973 5973 5974 5975
5940 5942 5944 5946 5947 5949 5951 5952 5953 5953 5954 5955 5955 5956 5957 5957 5958 5959 5960 5960 5961 5961 5961 5962 5962 5963 5964 5964 5965 5965 5966 5966 5967 5968 5969 5970 5970 5971 5972 5972 5973 5974
5938 5940 5942 5943 5945 5947 5949 5951 5952 5953 5953 5954 5955 5955 5956 5957 5957 5958 5959 5959 5960 5960 5961 5961 5962 5962 5963 5963 5964 5965 5965 5966 5966 5967 5968 5969 5970 5970 5971 5971 5972 5973
5939 5941 5943 5944 5946 5947 5949 5950 5952 5953 5954 5954 5955 5956 5956 5957 5957 5958 5959 5959 5959 5960 5960 5960 5961 5961 5962 5963 5964 5964 5965 5966 5966 5967 5967 5968 5969 5969 5970 5971 5971 5972
5940 5941 5942 5945 5946 5946 5947 5949 5950 5952 5953 5954 5955 5956 5957 5957 5958 5958 5959 5959 5959 5959 5960 5960 5960 5961 5962 5962 5963 5964 5965 5966 5966 5967 5967 5967 5968 5969 5969 5970 5971 5971
5939 5939 5940 5941 5942 5944 5945 5947 5948 5950 5952 5953 5954 5955 5956 5957 5958 5959 5959 5959 5959 5960 5960 5960 5960 5960 5961 5962 5963 5963 5964 5965 5966 5967 5967 5967 5967 5968 5969 5970 5970 5970
5936 5938 5937 5938 5940 5942 5945 5946 5947 5949 5950 5951 5952 5953 5954 5956 5957 5958 5959 5960 5960 5960 5960 5960 5960 5960 5960 5960 5961 5962 5963 5964 5965 5966 5966 5967 5967 5968 5968 5969 5970 5970
5933 5935 5936 5936 5938 5940 5943 5944 5944 5946 5948 5949 5950 5951 5952 5953 5955 5956 5958 5959 5959 5960 5959 5959 5959 5959 5959 5959 5959 5960 5961 5962 5963 5964 5965 5966 5966 5967 5968 5968 5969 5970
5931 5933 5935 5935 5935 5937 5940 5941 5942 5943 5945 5947 5948 5950 5951 5951 5952 5953 5955 5956 5957 5958 5958 5958 5958 5958 5958 5958 5958 5958 5959 5960 5961 5962 5963 5964 5964 5966 5966 5967 5968 5969
5930 5932 5933 5933 5933 5934 5937 5940 5941 5942 5943 5944 5946 5947 5949 5949 5950 5951 5952 5953 5954 5955 5956 5956 5956 5956 5956 5956 5957 5957 5957 5958 5958 5959 5960 5961 5962 5963 5964 5965 5966 5967
5928 5930 5931 5931 5932 5933 5935 5937 5939 5940 5940 5942 5944 5945 5946 5947 5948 5948 5949 5950 5952 5953 5953 5954 5954 5954 5954 5955 5955 5955 5956 5956 5957 5958 5959 5959 5960 5960 5961 5962 5963 5964
5925 5927 5929 5930 5931 5932 5933 5934 5936 5937 5939 5940 5942 5943 5944 5945 5946 5946 5947 5947 5949 5950 5951 5952 5952 5952 5952 5952 5953 5953 5954 5955 5956 5957 5957 5958 5959 5959 5959 5960 5960 5961
5923 5924 5926 5928 5929 5931 5932 5932 5933 5935 5937 5939 5940 5942 5942 5943 5943 5944 5944 5945 5945 5947 5948 5949 5949 5949 5950 5950 5951 5952 5952 5953 5954 5955 5956 5957 5958 5958 5958 5958 5959 5959
5922 5923 5925 5926 5927 5929 5929 5930 5931 5932 5934 5936 5937 5939 5940 5941 5941 5941 5942 5942 5943 5944 5945 5946 5947 5947 5948 5949 5950 5951 5952 5952 5952 5953 5954 5955 5956 5956 5956 5956 5957 5957
5921 5922 5923 5923 5924 5925 5926 5927 5928 5929 5931 5933 5934 5936 5937 5938 5939 5940 5940 5940 5940 5941 5942 5943 5944 5945 5946 5947 5948 5950 5951 5952 5952 5952 5952 5953 5954 5954 5955 5955 5955 5955
5919 5920 5920 5920 5920 5922 5923 5924 5925 5926 5928 5930 5932 5933 5934 5935 5936 5937 5937 5937 5938 5938 5939 5940 5942 5943 5944 5945 5946 5947 5948 5949 5950 5950 5950 5951 5951 5952 5953 5953 5954 5954
5916 5917 5917 5917 5918 5919 5921 5921 5922 5923 5925 5927 5928 5930 5931 5931 5932 5933 5934 5934 5935 5936 5936 5938 5939 5941 5943 5943 5943 5943 5943 5944 5945 5945 5946 5947 5947 5948 5949 5950 5951 5951
5913 5914 5914 5915 5916 5918 5919 5920 5921 5922 5923 5924 5926 5927 5927 5928 5929 5930 5930 5931 5932 5933 5934 5936 5937 5939 5940 5940 5939 5939 5938 5938 5939 5940 5941 5942 5943 5944 5945 5946 5947 5948
5909 5910 5911 5912 5913 5915 5916 5918 5919 5920 5921 5922 5924 5925 5925 5926 5926 5927 5927 5928 5929 5931 5933 5934 5935 5936 5936 5935 5935 5935 5934 5934 5935 5937 5938 5940 5942 5943 5943 5944 5945 5945
5906 5907 5908 5909 5910 5912 5913 5915 5917 5918 5919 5921 5922 5922 5923 5923 5924 5925 5925 5925 5926 5928 5930 5931 5932 5931 5931 5931 5931 5932 5932 5933 5934 5935 5937 5939 5940 5941 5942 5942 5943 5943
5902 5903 5904 5906 5907 5909 5910 5912 5913 5915 5916 5917 5918 5919 5919 5920 5921 5922 5923 5922 5922 5925 5927 5928 5928 5927 5927 5928 5929 5930 5931 5932 5932 5934 5935 5935 5936 5938 5939 5940 5941 5941
5898 5899 5900 5901 5903 5905 5907 5908 5909 5911 5912 5914 5915 5916 5917 5917 5918 5920 5920 5918 5918 5921 5923 5923 5923 5923 5924 5925 5926 5927 5928 5929 5930 5931 5932 5932 5933 5935 5936 5937 5938 5938